[[{"header":{"parameterUnit":"m.s-1","parameterCategory":1,"la1":30.2991,"la2":30.254,"lo1":-89.0895,"lo2":-89.0444,"dy":0.0017,"dx":0.0017,"nx":28,"ny":28,"refTime":"2025-08-19T21:00:00:Z","depth":0,"parameterNumber":2,"parameterNumberName":"U-component_of_WINDS"},"data":[0,0,0,0,0,0,0,0,0,0,0,0,0,0,0,0,0,0,0,0,0,0,0,0,0,0,0,0,0,0,0,0,0,0,0,0,0,0,0,0,0,0,0,0,0,0,0,0,0,0,0,0,0,0,0,0,0,0,3.6804,3.6806,0,3.6954,3.6956,3.6958,3.693,3.6927,3.6924,3.6922,3.7072,3.7079,3.7085,0,0,0,0,0,0,0,0,0,0,0,0,0,3.6491,3.6496,3.6804,3.6806,3.6808,3.6954,3.6956,3.6958,3.693,3.6927,3.6924,3.6921,3.707,3.7078,3.7086,0,0,0,0,0,0,0,0,0,0,0,0,0,3.6632,3.6498,3.6804,3.6811,3.6814,3.6954,3.6956,3.6959,3.6931,3.6927,3.6923,3.6919,3.7068,3.7077,3.7087,3.7227,0,0,3.7117,3.7121,0,0,0,0,0,0,0,0,3.6624,3.6644,3.6808,3.6811,3.6814,3.6919,3.6901,3.7049,3.6932,3.6886,3.6922,3.6917,3.7024,3.7037,3.7074,3.7235,3.7241,3.7117,3.7123,3.7128,3.713,0,0,0,0,0,0,0,3.6615,3.6637,3.6863,3.6811,3.6814,3.6807,3.6823,3.6929,3.6976,3.689,3.6888,3.6907,3.7025,3.7065,3.7078,3.7243,3.7117,3.7126,3.7132,3.7136,3.7528,3.7533,0,0,0,0,0,0,3.6603,3.6629,3.6859,3.6868,3.6707,3.6816,3.6833,3.6889,3.6975,3.6984,3.691,3.6905,3.705,3.7066,3.7083,3.7255,3.7127,3.7137,3.7142,3.7524,3.7529,3.7534,0,0,0,0,0,0,3.6596,3.6623,3.6853,3.6748,3.6777,3.6825,3.6889,3.6895,3.6934,3.699,3.6998,3.6942,3.7048,3.7069,3.7192,3.7259,3.7141,3.715,3.7518,3.7526,3.7532,3.7598,0,0,0,0,0,0,3.6587,3.6621,3.6675,3.675,3.6783,3.696,3.6893,3.69,3.6952,3.6947,3.7022,3.7031,3.7046,3.7178,3.7202,3.7271,3.7158,3.7513,3.7522,3.753,3.759,3.7607,3.7621,0,0,0,0,0,3.6576,3.6687,3.6678,3.6706,3.6852,3.6964,3.6983,3.6999,3.6957,3.7012,3.7048,3.7029,3.7248,3.7191,3.7218,3.729,3.7508,3.7519,3.7529,3.7584,3.7603,3.762,0,0,0,0,0,0,3.6617,3.6697,3.6688,3.6826,3.6889,3.6959,3.7029,3.7019,3.7094,3.7086,3.7102,3.712,3.7245,3.728,3.7215,3.7432,3.7372,3.7389,3.7405,3.7424,3.7439,3.7428,3.7166,0,0,0,0,0,3.6643,3.6729,3.6793,3.6909,3.6941,3.698,3.7029,3.7037,3.7102,3.7128,3.7172,3.7235,3.7319,3.7373,3.7453,3.7595,3.7612,3.7659,3.7674,3.7686,3.77,3.7779,3.7801,3.7568,3.7568,3.7568,0,0,3.6696,3.675,3.6803,3.6919,3.6968,3.7056,3.7002,3.7097,3.7162,3.7142,3.7261,3.7297,3.7368,3.7502,3.7564,3.7535,3.7768,3.7699,3.7708,3.7716,3.7792,3.7814,3.7834,3.7575,3.7574,3.7573,0,0,3.6838,3.6887,3.699,3.7041,3.7117,3.7143,3.7168,3.724,3.7263,3.7384,3.7371,3.7449,3.7592,3.7644,3.7689,3.7853,3.7838,3.7879,3.7957,3.8035,3.8053,3.8069,3.8129,3.815,3.7892,3.7892,3.7892,0,3.6894,3.7027,3.7043,3.7141,3.7193,3.718,3.7284,3.7333,3.743,3.7466,3.7434,3.7614,3.7661,3.7808,3.7849,3.7885,3.7914,3.787,3.8049,3.8066,3.8081,3.8138,3.816,3.7897,3.7896,3.7896,3.7895,0,3.7092,3.7185,3.7259,3.7356,3.7415,3.7516,3.7548,3.7606,3.7609,3.7638,3.7762,3.7819,3.791,3.7946,3.7948,3.8094,3.8074,3.8045,3.7986,3.8108,3.8161,3.8183,3.7903,3.7902,3.79,3.7899,0,0,3.7263,3.737,3.7397,3.7441,3.7525,3.7597,3.7697,3.7788,3.7839,3.7907,3.7991,3.8114,3.8089,3.814,3.8149,3.8217,3.8345,3.818,3.8182,3.8209,3.851,3.8531,3.8556,3.8336,3.834,3.8343,3.8504,0,3.7413,3.7591,3.761,3.7769,3.7855,3.7845,3.7932,3.7993,3.8024,3.8101,3.8133,3.8221,3.818,3.8211,3.8278,3.8315,3.8405,3.8304,3.8415,3.8418,3.8397,3.8584,3.8607,3.8756,3.8525,3.8529,3.8531,0,3.7612,3.7688,3.7856,3.793,3.7967,3.8045,3.8131,3.8205,3.8274,3.8292,3.8351,3.8351,3.8454,3.8391,3.8534,3.8465,3.8511,3.8537,3.8543,3.8554,3.8482,3.8601,3.8803,3.8826,3.8564,3.8562,3.8559,0,3.7721,3.7866,3.7985,3.8023,3.8112,3.8168,3.8207,3.8273,3.8327,3.8402,3.8438,3.8523,3.857,3.8636,3.866,3.8612,3.8803,3.8741,3.882,3.8819,3.886,3.8857,3.9074,3.889,3.8889,3.8889,3.8888,0,3.7887,3.7991,3.8036,3.8109,3.8225,3.8246,3.8359,3.8396,3.8455,3.8535,3.8531,3.8607,3.8633,3.8713,3.8732,3.8849,3.887,3.8886,3.889,3.8887,3.8885,3.8918,3.8908,3.8895,3.8894,3.8892,3.8891,0,3.8029,3.8063,3.8193,3.8267,3.8288,3.837,3.8434,3.8505,3.8534,3.8636,3.8661,3.8708,3.8802,3.8833,3.8946,3.8959,3.9095,3.9089,3.9072,3.9072,3.915,3.9143,3.9395,3.943,3.9223,3.9225,3.9226,0,3.8133,3.8212,3.8296,3.835,3.8392,3.8479,3.8535,3.8559,3.8618,3.8704,3.8765,3.8858,3.8935,3.9086,3.9129,3.9216,3.9213,3.9296,3.9226,3.9221,3.9215,3.9211,3.9219,3.9309,3.9311,3.9313,3.9314,0,3.8314,3.8327,3.8409,3.8497,3.8565,3.8635,3.8702,3.8747,3.8781,3.8847,3.8944,3.9003,3.912,3.9213,3.9302,3.9342,3.9335,3.9336,3.9359,3.9356,3.9343,3.9352,3.9108,3.933,3.9328,3.9327,3.9326,3.9325,3.844,3.8511,3.8582,3.8673,3.8727,3.8791,3.8862,3.8901,3.8983,3.9081,3.909,3.9195,3.9263,3.9383,3.9428,3.951,3.9486,3.9519,3.9528,3.9536,3.9542,3.933,3.9526,3.9526,3.9525,3.9525,3.9525,0,3.8622,3.8668,3.8751,3.8847,3.8919,3.8907,3.8981,3.9042,3.9135,3.92,3.9276,3.9388,3.9479,3.9531,3.9622,3.9678,3.9677,3.9701,3.9698,3.9707,3.9558,3.9529,3.9701,3.9701,3.9701,3.9701,3.9701,3.9701,3.8725,3.8845,3.8867,3.9014,3.9058,3.9162,3.9206,3.9265,3.9317,3.9443,3.952,3.9553,3.9613,3.9709,3.9792,3.9805,3.9839,3.9866,3.9876,3.9736,3.9718,3.97,3.9674,3.9873,3.9873,4.0019,4.0021,4.0022]},{"header":{"parameterUnit":"m.s-1","parameterCategory":1,"la1":30.2991,"la2":30.254,"lo1":-89.0895,"lo2":-89.0444,"dy":0.0017,"dx":0.0017,"nx":28,"ny":28,"refTime":"2025-08-19T21:00:00:Z","depth":0,"parameterNumber":3,"parameterNumberName":"V-component_of_WINDS"},"data":[0,0,0,0,0,0,0,0,0,0,0,0,0,0,0,0,0,0,0,0,0,0,0,0,0,0,0,0,0,0,0,0,0,0,0,0,0,0,0,0,0,0,0,0,0,0,0,0,0,0,0,0,0,0,0,0,0,0,-1.2073,-1.2071,0,-1.1897,-1.1895,-1.1893,-1.182,-1.1821,-1.1821,-1.1822,-1.1626,-1.162,-1.1615,0,0,0,0,0,0,0,0,0,0,0,0,0,-1.233,-1.2326,-1.2073,-1.2071,-1.2069,-1.1898,-1.1895,-1.1893,-1.182,-1.1821,-1.1821,-1.1822,-1.1628,-1.1621,-1.1614,0,0,0,0,0,0,0,0,0,0,0,0,0,-1.2193,-1.2325,-1.2073,-1.2012,-1.2005,-1.1898,-1.1895,-1.1892,-1.182,-1.1821,-1.1821,-1.1822,-1.163,-1.1622,-1.1613,-1.1549,0,0,-1.1588,-1.1584,0,0,0,0,0,0,0,0,-1.2201,-1.2183,-1.2023,-1.2016,-1.2008,-1.1882,-1.1914,-1.1777,-1.182,-1.189,-1.1822,-1.1822,-1.1709,-1.1695,-1.166,-1.154,-1.1532,-1.1587,-1.1582,-1.1578,-1.1576,0,0,0,0,0,0,0,-1.221,-1.219,-1.2003,-1.2021,-1.2012,-1.1989,-1.197,-1.1888,-1.1798,-1.1884,-1.1878,-1.1859,-1.1705,-1.1668,-1.1655,-1.1529,-1.1587,-1.158,-1.1575,-1.1571,-1.1346,-1.1345,0,0,0,0,0,0,-1.2232,-1.2199,-1.2008,-1.1998,-1.2108,-1.1984,-1.1962,-1.1921,-1.1799,-1.1781,-1.1859,-1.1857,-1.1682,-1.1664,-1.1647,-1.1563,-1.1578,-1.1571,-1.1566,-1.1347,-1.1346,-1.1344,0,0,0,0,0,0,-1.2238,-1.2216,-1.2015,-1.2097,-1.207,-1.1979,-1.1933,-1.1918,-1.188,-1.178,-1.1762,-1.1839,-1.1682,-1.1659,-1.1575,-1.1555,-1.1567,-1.1559,-1.1348,-1.1346,-1.1345,-1.1395,0,0,0,0,0,0,-1.2246,-1.2218,-1.2197,-1.2097,-1.2066,-1.1951,-1.1932,-1.1914,-1.1868,-1.1863,-1.1756,-1.1739,-1.1681,-1.1588,-1.1567,-1.1544,-1.1553,-1.1349,-1.1347,-1.1345,-1.1395,-1.1396,-1.1397,0,0,0,0,0,-1.2255,-1.2214,-1.2196,-1.2173,-1.2037,-1.195,-1.1931,-1.187,-1.1867,-1.1842,-1.1777,-1.1742,-1.1562,-1.158,-1.1555,-1.153,-1.135,-1.1348,-1.1346,-1.1395,-1.1396,-1.1397,0,0,0,0,0,0,-1.2308,-1.22,-1.2178,-1.2105,-1.2038,-1.1938,-1.1904,-1.1873,-1.1801,-1.1799,-1.1721,-1.1697,-1.1619,-1.1566,-1.1588,-1.1461,-1.1453,-1.1445,-1.1498,-1.1498,-1.1499,-1.1513,-1.1546,0,0,0,0,0,-1.2312,-1.2256,-1.2162,-1.2106,-1.2075,-1.1996,-1.1955,-1.1915,-1.1839,-1.1809,-1.1738,-1.1662,-1.1588,-1.154,-1.1467,-1.1388,-1.1361,-1.1358,-1.1359,-1.136,-1.1354,-1.1306,-1.1303,-1.1337,-1.1337,-1.1337,0,0,-1.2318,-1.2252,-1.222,-1.2116,-1.2059,-1.1997,-1.1972,-1.1907,-1.1859,-1.1797,-1.1715,-1.166,-1.1569,-1.1488,-1.1448,-1.1441,-1.1339,-1.1357,-1.1359,-1.1351,-1.1303,-1.13,-1.1297,-1.1336,-1.1336,-1.1336,0,0,-1.2298,-1.2244,-1.2191,-1.2136,-1.2052,-1.2001,-1.1988,-1.1893,-1.1856,-1.1774,-1.1726,-1.1664,-1.1539,-1.1477,-1.1429,-1.1387,-1.135,-1.1364,-1.1367,-1.1322,-1.1319,-1.1316,-1.1299,-1.1294,-1.1359,-1.1359,-1.1359,0,-1.2314,-1.2225,-1.2167,-1.2106,-1.206,-1.2007,-1.1951,-1.1898,-1.1792,-1.1759,-1.1755,-1.1597,-1.1532,-1.1435,-1.1425,-1.1388,-1.1368,-1.1375,-1.1325,-1.1322,-1.1318,-1.13,-1.1295,-1.1361,-1.1361,-1.1361,-1.136,0,-1.2248,-1.2186,-1.2153,-1.2059,-1.2009,-1.1951,-1.188,-1.1835,-1.1799,-1.1746,-1.1661,-1.1582,-1.1492,-1.1466,-1.1427,-1.1362,-1.136,-1.1342,-1.1331,-1.1318,-1.13,-1.1293,-1.1364,-1.1363,-1.1363,-1.1362,0,0,-1.2253,-1.2131,-1.2119,-1.2076,-1.198,-1.1929,-1.1866,-1.1784,-1.1746,-1.1674,-1.1618,-1.1514,-1.1497,-1.1442,-1.1396,-1.1357,-1.1326,-1.1342,-1.1339,-1.134,-1.1246,-1.126,-1.1253,-1.1303,-1.1301,-1.13,-1.1253,0,-1.2218,-1.2111,-1.2058,-1.1971,-1.1912,-1.1861,-1.1806,-1.1739,-1.1688,-1.1626,-1.1567,-1.1495,-1.1479,-1.1446,-1.1405,-1.1339,-1.1306,-1.1342,-1.1244,-1.1241,-1.1267,-1.1244,-1.1258,-1.1218,-1.1246,-1.1245,-1.1244,0,-1.2163,-1.2099,-1.2008,-1.1921,-1.1893,-1.1846,-1.1765,-1.1709,-1.163,-1.1595,-1.1536,-1.1492,-1.142,-1.1417,-1.1314,-1.134,-1.1297,-1.1258,-1.1255,-1.1241,-1.1241,-1.1228,-1.1203,-1.1197,-1.1233,-1.1234,-1.1234,0,-1.2175,-1.2064,-1.1996,-1.196,-1.1857,-1.1824,-1.1778,-1.1701,-1.1655,-1.1582,-1.155,-1.1469,-1.1423,-1.1359,-1.1292,-1.1297,-1.1195,-1.1187,-1.116,-1.1162,-1.1138,-1.114,-1.1105,-1.1115,-1.1115,-1.1115,-1.1115,0,-1.214,-1.2086,-1.2,-1.1958,-1.1895,-1.1832,-1.1769,-1.1719,-1.1651,-1.1594,-1.1543,-1.1489,-1.1406,-1.134,-1.1287,-1.1209,-1.1188,-1.1155,-1.1141,-1.1158,-1.1163,-1.1127,-1.1127,-1.1113,-1.1114,-1.1114,-1.1114,0,-1.2141,-1.2082,-1.2004,-1.1914,-1.189,-1.1847,-1.1767,-1.1721,-1.1669,-1.1598,-1.1577,-1.1493,-1.1414,-1.1342,-1.1235,-1.1199,-1.1118,-1.1101,-1.1146,-1.1138,-1.1115,-1.1117,-1.1053,-1.104,-1.1062,-1.1062,-1.1062,0,-1.2122,-1.208,-1.1988,-1.1949,-1.1906,-1.1843,-1.1797,-1.1733,-1.1686,-1.1594,-1.1559,-1.1477,-1.1408,-1.1283,-1.1208,-1.1126,-1.1105,-1.1089,-1.1092,-1.1111,-1.1102,-1.1105,-1.1099,-1.1088,-1.1088,-1.1089,-1.1089,0,-1.2094,-1.2068,-1.2007,-1.1935,-1.1883,-1.1822,-1.1758,-1.1728,-1.1651,-1.16,-1.1522,-1.1469,-1.1362,-1.128,-1.119,-1.1136,-1.1097,-1.1089,-1.1078,-1.1094,-1.1121,-1.1104,-1.1146,-1.109,-1.109,-1.109,-1.109,-1.109,-1.2082,-1.2043,-1.1973,-1.1905,-1.1853,-1.1795,-1.1748,-1.1693,-1.1628,-1.154,-1.1505,-1.1424,-1.1344,-1.122,-1.1167,-1.1099,-1.1092,-1.1076,-1.1072,-1.1068,-1.1071,-1.1135,-1.1083,-1.1082,-1.1082,-1.1082,-1.1082,0,-1.205,-1.2004,-1.1943,-1.1859,-1.1805,-1.1782,-1.171,-1.1665,-1.1597,-1.1529,-1.1464,-1.1372,-1.1293,-1.1214,-1.1129,-1.109,-1.107,-1.107,-1.107,-1.1058,-1.1083,-1.1101,-1.1087,-1.1087,-1.1087,-1.1087,-1.1087,-1.1087,-1.2027,-1.1959,-1.1924,-1.1828,-1.1779,-1.1705,-1.1666,-1.1611,-1.1557,-1.1459,-1.1395,-1.1347,-1.1272,-1.1182,-1.1107,-1.1085,-1.1054,-1.1058,-1.1032,-1.1056,-1.1056,-1.1057,-1.1073,-1.1053,-1.1053,-1.1011,-1.1011,-1.1011]}]]